Orbital Elements
Epoch 2004 Dec. 21.0 TT = JDT 2453360.5
T 2004 Dec. 27.15425 TT Muraoka
q 3.4733844 (2000.0) P Q
n 0.12137307 Peri. 10.56489 -0.21597982 -0.97360707
a 4.0400600 Node 91.93746 +0.89035817 -0.22739606
e 0.1402642 Incl. 4.23297 +0.40076806 -0.01950139
P 8.12
From 113 observations 1989-1998, mean residual 0".86.
|